Regional Weather Roundup
Issued by NWS

Home | Current Version | Previous Version | Text Only | Print | Product List | Glossary Off
Versions: 1 2 3 4 5 6 7 8 9 10 11 12 13 14 15 16 17 18 19 20 21 22 23 24 25 26 27 28 29 30 31 32 33 34 35 36 37 38 39 40 41 42 43 44 45 46 47 48 49 50

000
ASUS43 KMPX 012010
RWRMN
WEATHER ROUNDUP FOR MINNESOTA
NATIONAL WEATHER SERVICE TWIN CITIES/CHANHASSEN MN
300 PM CDT TUE SEP 01 2015


NOTE: "FAIR" INDICATES FEW OR NO CLOUDS BELOW 12,000 FEET WITH NO
SIGNIFICANT WEATHER AND/OR OBSTRUCTIONS TO VISIBILITY. N/A MEANS
CURRENT SKY AND/OR WEATHER CONDITIONS ARE NOT AVAILABLE.

MNZ060>063-068>070-012100-
   Twin Cities Metro

CITY           SKY/WX    TMP DP  RH WIND       PRES   REMARKS
TWIN CITIES    CLOUDY    84  72  67 SE5       29.89S
ST PAUL        CLOUDY    83  72  69 SE3       29.90R
CRYSTAL        CLOUDY    85  70  60 SE7       29.87F
BLAINE         CLOUDY    86  72  62 S7        29.89S HX  92
LAKEVILLE      CLOUDY    82  73  74 SE3       29.90F
EDEN PRAIRIE   CLOUDY    84  73  69 SE8       29.88F HX  90
SOUTH ST PAUL  CLOUDY    83  71  66 CALM      29.90S
LAKE ELMO      FAIR      81  73  78 CALM      29.92R
$$
MNZ001>005-007-008-013>017-022>024-027-028-012100-
   Northwest Minnesota

CITY           SKY/WX    TMP DP  RH WIND       PRES   REMARKS
BEMIDJI        SUNNY     83  53  35 SE5       29.90S
HALLOCK        SUNNY     86  54  32 SW13      29.82S
ROSEAU         SUNNY     84  54  34 SW9G17    29.86S
WARROAD        SUNNY     82  55  39 SW10      29.86F
THIEF RVR FALL SUNNY     84  52  32 S7        29.87S
CROOKSTON      SUNNY     84  52  32 S8G16     29.86S
FOSSTON        SUNNY     86  48  26 S9        29.89F
DETROIT LAKES  SUNNY     84  46  26 SE7       29.91S
MOORHEAD       SUNNY     88  46  23 SE8       29.87S
PARK RAPIDS    MOSUNNY   86  49  27 SE7       29.90S
MAHNOMEN       FAIR      83  52  33 SE3       29.88F
$$
MNZ006-009>011-018-025>026-012100-
   North Central Minnesota

CITY           SKY/WX    TMP DP  RH WIND       PRES   REMARKS
BAUDETTE       SUNNY     82  48  30 CALM      29.87F
FLAG ISLAND    SUNNY     73  59  60 S13       29.85S
INTL FALLS     SUNNY     80  48  32 VRB5      29.89F
WASKISH        SUNNY     81  59  47 W3        29.89F
BIG FORK       SUNNY     82  54  36 SW3       29.91F
LONGVILLE      SUNNY     82  54  36 CALM      29.91S
GRAND RAPIDS     N/A     82  50  32 N5        29.92S
CRANE LAKE     SUNNY     77  45  31 W3        29.92S
ORR            SUNNY     81  48  32 CALM      29.89S
COOK           SUNNY     81  50  34 W3        29.92S
WALKER         FAIR      80  54  40 E5        29.91S
$$
MNZ012-019>021-037-012100-
   Northeast Minnesota

CITY           SKY/WX    TMP DP  RH WIND       PRES   REMARKS
DULUTH         MOSUNNY   83  62  49 SW3       29.91S
ELY            MOSUNNY   79  46  31 W7        29.92S
HIBBING        SUNNY     83  49  30 SW7       29.91S
EVELETH        SUNNY     81  50  34 NW5       29.93S
DULUTH HARBOR  MOSUNNY   82  72  69 S5        29.88S
TWO HARBORS    MOSUNNY   84  73  70 S7        29.88S HX  91
SILVER BAY     MOSUNNY   81  68  65 SE7       29.87S
GRAND MARAIS     N/A     62  59  90 SW8       29.86F
G MARAIS ARPRT PTSUNNY   77  57  50 W2        29.93S
$$
MNZ029>031-032-039>041-046>048-054>057-064-012100-
   West Central Minnesota

CITY           SKY/WX    TMP DP  RH WIND       PRES   REMARKS
FERGUS FALLS   PTSUNNY   82  61  47 SE9       29.87S
WHEATON        CLOUDY    81  70  69 SE8G16    29.86F
MORRIS         CLOUDY    81  73  78 SE7       29.87S
ALEXANDRIA     PTSUNNY   82  70  66 S12       29.91S
ELBOW LAKE     PTSUNNY   82  69  65 S8        29.88F
WADENA         MOSUNNY   82  57  42 SE8       29.91R
GLENWOOD       CLOUDY    82  72  69 S8        29.91F
APPLETON       CLOUDY    79  70  73 SE5       29.86F
BENSON         CLOUDY    79  70  73 S3        29.88F
ORTONVILLE     CLOUDY    79  70  73 E8        29.83F
MADISON        LGT RAIN  75  72  88 N5        29.85F
WILLMAR        FAIR      81  73  78 CALM      29.91S
$$
MNZ033>034-036-042>043-049>051-058-059-012100-
   Central Minnesota

CITY           SKY/WX    TMP DP  RH WIND       PRES   REMARKS
ST CLOUD       PTSUNNY   84  71  65 S10       29.89S
SAUK CENTRE    FAIR      81  71  73 S5        29.91S
PAYNESVILLE    PTSUNNY   81  70  70 S3        29.91S
AITKIN         MOSUNNY   84  63  48 CALM      29.89S
PINE RIVER     MOSUNNY   82  55  39 SE5       29.94S
BRAINERD       MOSUNNY   83  59  44 W3        29.91R
STAPLES        PTSUNNY   82  54  36 SE6       29.91S
LONG PRAIRIE   FAIR      81  68  65 SE6       29.91S
LITTLE FALLS   PTSUNNY   82  64  54 S3        29.91R
LITCHFIELD     PTSUNNY   82  73  74 CALM      29.90S
BUFFALO        PTSUNNY   83  70  64 SE5       29.90R
MAPLE LAKE     PTSUNNY   84  75  74 S5        29.90S HX  91
$$
MNZ037-044-045-052-053-012100-
   East Central Minnesota

CITY           SKY/WX    TMP DP  RH WIND       PRES   REMARKS
PRINCETON      PTSUNNY   88  72  58 S5        29.89F HX  94
MORA           MOSUNNY   82  72  69 SW7       29.91F
CAMBRIDGE        N/A     88  72  58 S7        29.88S HX  94
RUSH CITY      PTSUNNY   83  71  66 S6        29.90S
MOOSE LAKE     MOSUNNY   81  68  65 CALM      29.89S
HINCKLEY       FAIR      82  73  74 SW5       29.90F
CLOQUET        SUNNY     82  63  51 S5        29.91S
MCGREGOR       MOSUNNY   84  63  48 CALM      29.91S
$$
MNZ071>073-080-081-089-090-097-098-012100-
   Southwest Minnesota

CITY           SKY/WX    TMP DP  RH WIND       PRES   REMARKS
MONTEVIDEO     CLOUDY    77  72  83 SE5       29.89F
GRANITE FALLS  CLOUDY    77  71  82 CALM      29.89F
CANBY          CLOUDY    76  71  87 SE6       29.87S
MARSHALL       CLOUDY    81  68  65 SE7       29.89F
REDWOOD FALLS  CLOUDY    82  72  71 S7        29.89S
OLIVIA         CLOUDY    77  70  78 CALM      29.89F
PIPESTONE      PTSUNNY   82  68  61 SE9       29.90S
WINDOM         CLOUDY    84  70  61 S5        29.91S
WORTHINGTON    CLOUDY    81  70  69 S5        29.91F
JACKSON        CLOUDY    82  72  69 S10       29.93S
TRACY          CLOUDY    83  72  68 SE5       29.90F
SLAYTON        CLOUDY    82  73  75 CALM      29.92S
$$
MNZ065>067-074>077-082>085-091>093-012100-
   South Central Minnesota

CITY           SKY/WX    TMP DP  RH WIND       PRES   REMARKS
MANKATO        PTSUNNY   84  72  65 S12       29.91R
NEW ULM        CLOUDY    84  72  65 S12       29.89R
ST JAMES       CLOUDY    84  72  65 S9        29.91S
FAIRMONT       PTSUNNY   82  68  61 S10       29.92R
GLENCOE        CLOUDY    83  75  76 CALM      29.90R HX  91
FARIBAULT      PTSUNNY   88  75  66 S7        29.91S HX  97
OWATONNA       PTSUNNY   84  73  70 S7        29.92S HX  91
WASECA         PTSUNNY   82  72  69 S8        29.93S
ALBERT LEA     MOSUNNY   84  72  65 S8        29.94R
$$
MNZ078>079-086>088-094>096-012100-
   Southeast Minnesota

CITY           SKY/WX    TMP DP  RH WIND       PRES   REMARKS
ROCHESTER      MOSUNNY   85  74  69 S12       29.94S HX  92
RED WING       PTSUNNY   88  72  58 SE6       29.89S HX  94
STANTON        PTSUNNY   87  71  60 CALM      29.89S HX  92
DODGE CENTER   PTSUNNY   82  73  74 S10       29.94R
WINONA         MOSUNNY   90  72  55 SE5       29.91S HX  96
AUSTIN         PTSUNNY   84  73  70 S9        29.93F HX  91
PRESTON        MOSUNNY   85  71  64 S13       29.95S HX  90
$$
ABBREVIATIONS USED IN REMARKS
   TC - TEMPERATURES IN CELSIUS
  WCI - WIND CHILL INDEX
   HX - HEAT INDEX
  VSB - VISIBILITY
$$



USA.gov is the U.S. government's official web portal to all federal, state and local government web resources and services.